WetterOnline ( https://www.wetteronline.de )

Wetter aktuell Alluy

Aktuelles Wetter: Nevers/Marzy (176m)

6-stündlich | Neueste Meldungen
Ortszeit Temperatur Wetter
Do, 20.06. 14:00 21.9° C bewölkt
Do, 20.06. 8:00 17.0° C leichter Regen
Do, 20.06. 2:00 18.1° C bedeckt
Mi, 19.06. 20:00 19.6° C leichter Regen
Mi, 19.06. 14:00 23.3° C bewölkt
Mi, 19.06. 8:00 16.9° C Regen
Mi, 19.06. 2:00 17.8° C bedeckt
Di, 18.06. 20:00 20.9° C bedeckt
Ortszeit Temperatur Wetter
Do, 20.06. 18:00 22.0° C wolkig
Do, 20.06. 17:00 23.1° C wolkig
Do, 20.06. 16:00 22.8° C bewölkt
Do, 20.06. 15:00 23.0° C bewölkt
Do, 20.06. 14:00 21.9° C bewölkt
Do, 20.06. 13:00 20.7° C -
Do, 20.06. 12:00 19.2° C leichter Regen
Ortszeit Relative Feuchte Sichtweite
Do, 20.06. 14:00 77% 18 km
Do, 20.06. 8:00 96% 20 km
Do, 20.06. 2:00 88% 20 km
Mi, 19.06. 20:00 92% 20 km
Mi, 19.06. 14:00 69% 19 km
Mi, 19.06. 8:00 97% 1.9 km
Mi, 19.06. 2:00 98% 6 km
Di, 18.06. 20:00 93% 19 km
Ortszeit Relative Feuchte Sichtweite
Do, 20.06. 18:00 82% 20 km
Do, 20.06. 17:00 75% 20 km
Do, 20.06. 16:00 71% 20 km
Do, 20.06. 15:00 71% 20 km
Do, 20.06. 14:00 77% 18 km
Do, 20.06. 13:00 86% 8 km
Do, 20.06. 12:00 91% 20 km
Ortszeit Niederschlagsmenge Niederschlagsart
Do, 20.06. 14:00 2 l/m2 in 6 Std. -
Do, 20.06. 8:00 25 l/m2 in 12 Std. -
Do, 20.06. 2:00 20 l/m2 in 6 Std. -
Mi, 19.06. 20:00 9 l/m2 in 12 Std. -
Mi, 19.06. 14:00 1 l/m2 in 6 Std. -
Mi, 19.06. 8:00 39 l/m2 in 12 Std. -
Mi, 19.06. 2:00 0.2 l/m2 in 6 Std. -
Di, 18.06. 20:00 1 l/m2 in 12 Std. -
Ortszeit Niederschlagsmenge Niederschlagsart
Do, 20.06. 18:00 0.0 l/m2 in 1 Std. -
Do, 20.06. 17:00 keine Meldung -
Do, 20.06. 16:00 0.0 l/m2 in 1 Std. -
Do, 20.06. 15:00 0.0 l/m2 in 1 Std. -
Do, 20.06. 14:00 keine Meldung -
Do, 20.06. 13:00 0.4 l/m2 in 1 Std. -
Do, 20.06. 12:00 0.0 l/m2 in 1 Std. -
Ortszeit Stärke Spitze Richtung
km/h Bft. km/h Grad Sektor
Do, 20.06. 14:00 7 2 19 150° SO
Do, 20.06. 8:00 4 1 9 240° SW
Do, 20.06. 2:00 22 4 44 250° W
Mi, 19.06. 20:00 15 3 24 350° N
Mi, 19.06. 14:00 11 2 22 160° S
Mi, 19.06. 8:00 11 2 22 330° NW
Mi, 19.06. 2:00 4 1 9 330° NW
Di, 18.06. 20:00 9 2 15 320° NW
Ortszeit Stärke Spitze Richtung
km/h Bft. km/h Grad Sektor
Do, 20.06. 18:00 11 2 24 250° W
Do, 20.06. 17:00 4 1 15 50° NO
Do, 20.06. 16:00 6 1 17 290° W
Do, 20.06. 15:00 7 2 15 320° NW
Do, 20.06. 14:00 7 2 19 150° SO
Do, 20.06. 13:00 9 2 17 120° SO
Do, 20.06. 12:00 11 2 19 140° SO
Ortszeit Untergrenze Bedeckung Gattung
total tief tief mittel hoch
Do, 20.06. 14:00 - 7/8 - - - -
Do, 20.06. 8:00 - 8/8 - - - -
Do, 20.06. 2:00 - 8/8 - - - -
Mi, 19.06. 20:00 - 8/8 - - - -
Mi, 19.06. 14:00 - 7/8 - - - -
Mi, 19.06. 8:00 - 8/8 - - - -
Mi, 19.06. 2:00 - 8/8 - - - -
Di, 18.06. 20:00 - 8/8 - - - -
Ortszeit Bedeckungsgrad in Achtel und Wolkenuntergrenze
Do, 20.06. 18:00 6
Do, 20.06. 17:00 6
Do, 20.06. 16:00 7
Do, 20.06. 15:00 7
Do, 20.06. 14:00 7
Do, 20.06. 13:00 -
Do, 20.06. 12:00 -
Ortszeit Luftdruck NN (hPa) Tendenz (hPa in 3 Std.)
Do, 20.06. 14:00 1015 - 0,1
Do, 20.06. 8:00 1016 + 0,1
Do, 20.06. 2:00 1016 - 1,7
Mi, 19.06. 20:00 1015 - 0,3
Mi, 19.06. 14:00 1015 - 0,9
Mi, 19.06. 8:00 1015 + 2,4
Mi, 19.06. 2:00 1013 + 0,7
Di, 18.06. 20:00 1011 - 0,1
Ortszeit Luftdruck NN (hPa) Tendenz (hPa in 3 Std.)
Do, 20.06. 18:00 1014 - 0,3
Do, 20.06. 17:00 1014 - 1,2
Do, 20.06. 16:00 1015 - 0,6
Do, 20.06. 15:00 1015 - 1,1
Do, 20.06. 14:00 1015 - 0,1
Do, 20.06. 13:00 1015 0,0
Do, 20.06. 12:00 1016 + 0,1
Ortszeit Schneehöhe (cm)
Do, 20.06. 14:00 0
Do, 20.06. 8:00 0
Do, 20.06. 2:00 0
Mi, 19.06. 20:00 0
Mi, 19.06. 14:00 0
Mi, 19.06. 8:00 0
Mi, 19.06. 2:00 0
Di, 18.06. 20:00 0
Ortszeit Schneehöhe (cm)
Do, 20.06. 18:00 -
Do, 20.06. 17:00 0
Do, 20.06. 16:00 -
Do, 20.06. 15:00 -
Do, 20.06. 14:00 0
Do, 20.06. 13:00 -
Do, 20.06. 12:00 -
Link zu dieser Seite / Seite empfehlen

Das Wetter in ...